EHI
0 0 0 0 0 0 0 0 0 0 0 0 0 0 0 0 0 0 0 0 0 0 0 0 0 0 0 0 0 0 0 0 0 0 0 0 0 0 0 0 0 0 0
0 0 0 0 0 0 0 0 0 0 0 0 0 0 0 0 0 0 0 0 0 0 0 0 0 0 0 0 0 0 0 0 0 0 0 0 0 0 0 0 0 0 0
0 0 0 0 0 0 0 0 0 0 0 0 0 0 0 0 0 0 0 0 0 0 0 0 0 0 0 0 0 0 0 0 0 0 0 0 0 0 0 0 0 0 0
0 0 0 0 0 0 0 0 0 0 0 0 0 0 0 0 0 0 0 0 0 0 0 0 0 0 0 0 0 0 0 0 0 0 0 0 0 0 0 0 0 0 0
0 0 0 0 0 0 0 0 0 0 0 0 0 0 0 0 0 0 0 0 0 0 0 0 0 0 0 0 0 0 0 0 0 0 0 0 0 0 0 0 0 0 0
0 0 0 0 0 0 0 0 0 0 0 0 0 0 0 0 0 0 0 0 0 0 0 0 0 0 0 0 0 0 0 0 0 0 0 0 0 0 0 0 0 0 0
0 0 0 0 0 0 0 0 0 0 0 0 0 0 0 0 0 0 0 0 0 0 0 0 0 0 0 0 0 0 0 0 0 0 0 0 0 0 0 0 0 0 0
0 0 0 0 0 0 0 0 0 0 0 0 0 0 0 0 0 0 0 0 0 0 0 0 0 0 0 0 0 0 0 0 0 0 0 0 0 0 0 0 0 0 0
0 0 0 0 0 0 0 0 0 0 0 0 0 0 0 0 0 0 0 0 0 0 0 0 0 0 0 0 0 0 0 0 0 0 0 0 0 0 0 0 0 0 0
0 0 0 0 0 0 0 0 0 0 0 0 0 0 0 0 0 0 0 0 0 0 0 0 0 0 0 0 0 0 0 0 0 0 0 0 0 0 0 0 0 0 0
0 0 0 0 0 0 0 0 0 0 0 0 0 0 0 0 0 0 0 0 0 0 0 0 0 0 0 0 0 0 0 0 0 0 0 0 0 0 0 0 0 0 0
0 0 0 0 0 0 0 0 0 0 0 0 0 0 0 0 0 0 0 0 0 0 0 0 0 0 0 0 0 0 0 0 0 0 0 0 0 0 0 0 0 0 0
0 0 0 0 0 0 0 0 0 0 0 0 0 0 0 0 0 0 0 0 0 0 0 0 0 0 0 0 0 0 0 0 0 0 0 0 0 0 0 0 0 0 0
0 0 0 0 0 0 0 0 0 0 0 0 0 0 0 0 0 0 0 0 0 0 0 0 0 0 0 0 0 0 0 0 0 0 0 0 0 0 0 0 0 0 0
0 0 0 0 0 0 0 0 0 0 0 0 0 0 0 0 0 0 0 0 0 0 0 0 0 0 0 0 0 0 0 0 0 0 0 0 0 0 0 0 0 0 0
0 0 0 0 0 0 0 0 0 0 0 0 0 0 0 0 0 0 0 0 0 0 0 0 0 0 0 0 0 0 0 0 0 0 0 0 0 0 0 0 0 0 0
0 0 0 0 0 0 0 0 0 0 0 0 0 0 0 0 0 0 0 0 0 0 0 0 0 0 0 0 0 0 0 0 0 0 0 0 0 0 0 0 0 0 0
0 0 0 0 0 0 0 0 0 0 0 0 0 0 0 0 0 0 0 0 0 0 0 0 0 0 0 0 0 0 0 0 0 0 0 0 0 0 0 0 0 0 0
0 0 0 0 0 0 0 0 0 0 0 0 0 0 0 0 0 0 0 0 0 0 0 0 0 0 0 0 0 0 0 0 0 0 0 0 0 0 0 0 0 0 0
0 0 0 0 0 0 0 0 0 0 0 0 0 0 0 0 0 0 0 0 0 0 0 0 0 0 0 0 0 0 0 0 0 0 0 0 0 0 0 0 0 0 0
0 0 0 0 0 0 0 0 0 0 0 0 0 0 0 0 0 0 0 0 0 0 0 0 0 0 0 0 0 0 0 0 0 0 0 0 0 0 0 0 0 0 0
0 0 0 0 0 0 0 0 0 0 0 0 0 0 0 0 0 0 0 0 0 0 0 0 0 0 0 0 0 0 0 0 0 0 0 0 0 0 0 0 0 0 0
0 0 0 0 0 0 0 0 0 0 0 0 0 0 0 0 0 0 0 0 0 0 0 0 0 0 0 0 0 0 0 0 0 0 0 0 0 0 0 0 0 0 0
0 0 0 0 0 0 0 0 0 0 0 0 0 0 0 0 0 0 0 0 0 0 0 0 0 0 0 0 0 0 0 0 0 0 0 0 0 0 0 0 0 0 0
0 0 0 0 0 0 0 0 0 0 0 0 0 0 0 0 0 0 0 0 0 0 0 0 0 0 0 0 0 0 0 0 0 0 0 0 0 0 0 0 0 0 0
0 0 0 0 0 0 0 0 0 0 0 0 0 0 0 0 0 0 0 0 0 0 0 0 0 0 0 0 0 0 0 0 0 0 0 0 0 0 0 0 0 0 0
Wind_Speed
4 3 3 3 4 3 4 4 4 4 5 5 5 6 7 7 7 6 4 7 10 11 12 12 11 10 10 9 8 7 6 5 4 3 3 2 1 0 1 2 2 2 3
4 4 4 4 4 4 4 5 6 5 5 5 6 7 7 8 7 7 7 6 10 12 14 14 14 13 12 12 11 10 9 8 7 6 6 5 4 3 2 2 2 2 2
5 5 5 4 5 5 6 5 6 5 5 6 8 8 7 8 8 9 8 7 7 11 14 16 16 16 15 14 14 13 12 11 10 9 9 8 7 6 5 4 3 3 2
6 5 5 5 5 5 5 5 5 6 6 6 7 6 6 6 9 9 8 8 7 7 9 15 16 17 16 16 16 15 15 14 14 13 12 11 9 8 8 7 6 5 4
7 6 5 5 6 5 5 5 6 6 7 7 7 7 7 7 8 8 10 10 9 8 8 7 12 14 15 16 17 17 16 16 16 15 14 13 12 11 10 9 8 7 7
6 6 5 7 6 5 5 6 7 6 6 7 6 7 8 8 8 8 9 8 7 8 8 8 7 8 13 15 17 18 18 17 16 17 17 16 15 14 13 12 11 10 9
4 5 5 6 5 6 7 7 6 7 6 5 4 6 8 9 9 7 6 6 6 6 6 6 6 6 5 9 14 16 17 17 16 17 18 18 17 17 16 14 13 13 11
3 3 5 5 5 5 7 7 6 5 4 4 4 5 6 6 6 5 5 4 5 4 4 5 5 5 5 4 4 8 12 16 17 16 17 18 19 19 18 17 16 15 14
2 3 4 4 5 5 5 6 6 7 6 5 5 5 6 5 4 3 4 4 4 3 3 3 4 5 5 5 5 4 7 11 15 16 16 16 18 20 21 20 18 17 16
2 2 3 4 4 4 5 6 6 5 7 6 5 6 7 6 5 4 3 3 3 4 4 3 4 4 4 4 4 6 7 9 13 15 16 16 17 18 20 21 20 19 18
2 3 3 3 3 3 4 5 5 6 5 6 6 5 6 6 7 6 6 5 4 3 3 4 3 3 4 4 4 7 9 10 12 14 16 16 17 16 18 20 21 21 19
1 3 3 3 3 3 4 4 5 5 5 6 5 5 5 5 4 5 6 5 5 3 2 2 3 3 4 5 6 10 10 10 12 13 15 15 14 13 13 14 15 16 18
1 3 3 3 3 3 4 4 3 3 4 4 4 3 3 3 3 4 5 5 5 3 2 1 3 4 4 5 6 11 8 10 11 12 12 11 9 8 7 7 8 10 13
1 3 3 3 3 4 3 3 2 2 2 2 2 2 1 2 2 2 3 4 4 4 3 1 3 4 4 5 8 10 7 11 10 10 9 9 7 6 5 4 3 4 7
1 2 2 3 3 4 3 3 2 2 2 2 3 3 2 3 3 3 2 2 3 4 3 2 2 4 4 4 8 6 7 11 11 10 9 8 7 6 5 3 1 2 5
1 1 2 2 3 3 3 3 3 3 4 4 3 4 4 3 3 3 2 2 2 2 2 2 3 4 5 4 7 6 7 11 12 11 9 8 8 9 9 8 7 5 6
1 1 2 2 3 3 3 3 4 4 5 5 5 5 6 5 4 4 3 3 3 2 1 1 2 3 4 5 5 5 5 6 6 13 11 11 10 9 9 9 8 7 5
2 2 2 3 3 3 4 4 5 5 5 6 6 6 6 4 6 5 4 4 3 3 2 0 1 2 3 4 4 5 5 5 5 10 11 10 10 9 8 7 6 4 3
3 3 3 3 3 4 4 5 5 6 6 6 6 6 6 5 6 5 5 4 3 3 2 1 1 2 2 3 3 3 4 4 4 6 8 8 8 8 6 6 4 3 1
3 3 3 4 4 4 4 5 5 6 6 6 6 6 6 6 5 5 4 4 4 3 3 2 1 1 2 2 2 3 2 3 3 4 4 5 5 5 5 4 4 3 3
3 3 4 4 4 4 4 4 4 5 5 5 5 6 7 8 8 6 5 4 4 3 2 2 1 1 2 2 2 3 3 3 2 3 4 3 3 2 2 2 3 4 5
4 4 4 4 4 3 6 6 4 4 4 4 4 4 5 6 7 8 9 8 7 4 3 2 1 1 2 3 3 3 3 4 2 2 4 4 3 3 2 2 4 6 7
4 4 4 4 4 6 7 7 6 4 4 3 3 3 2 3 3 3 4 5 6 6 5 3 2 2 3 3 4 4 3 4 4 4 5 4 2 3 2 2 5 7 7
4 4 4 4 4 5 6 6 6 4 3 3 2 1 1 1 2 3 3 3 3 3 3 3 3 3 3 3 3 3 4 5 5 2 3 4 3 4 4 3 2 5 6
5 4 3 3 3 4 5 6 5 3 2 2 1 0 1 1 2 2 2 2 2 1 1 3 4 4 4 4 5 3 3 4 4 2 1 3 3 5 5 3 1 2 4
5 4 4 4 4 4 5 6 5 2 2 2 1 1 1 3 3 3 3 3 3 2 2 2 2 2 3 2 2 3 3 3 3 3 1 2 3 4 4 2 2 3 4
Wind_Direction
223 222 233 233 241 248 244 251 256 260 263 266 263 266 267 263 263 261 251 215 238 251 256 258 254 245 238 237 237 234 233 234 233 231 233 234 228 185 98 88 84 81 82
234 236 242 241 246 246 254 259 262 268 268 266 269 267 268 270 265 264 266 238 224 240 250 253 254 251 245 238 234 230 228 228 228 226 223 223 221 215 205 180 146 121 107
237 240 249 248 248 248 252 258 264 266 269 268 265 266 268 269 268 267 262 263 248 226 235 246 250 251 248 244 238 233 227 225 224 224 221 220 219 219 217 209 196 183 167
236 243 246 250 253 252 249 252 259 259 260 262 268 271 268 266 268 270 267 257 257 256 233 232 243 249 250 248 245 240 231 224 221 220 220 219 218 218 219 216 211 204 198
239 241 248 254 253 249 248 249 254 258 266 267 269 275 274 271 270 266 264 262 257 257 263 235 230 245 252 252 251 249 243 232 223 220 219 218 217 216 217 217 215 213 210
243 245 249 256 257 250 250 248 252 253 263 274 278 275 273 269 265 264 267 267 261 259 262 269 254 237 237 249 253 254 252 246 233 224 220 219 217 216 215 216 217 216 217
253 250 254 259 254 251 255 257 255 257 256 259 266 271 266 259 259 259 261 269 268 267 266 266 267 272 253 237 246 256 258 256 248 236 226 222 218 216 215 215 217 217 217
276 266 263 263 260 261 260 258 252 253 253 235 248 277 281 271 239 240 253 262 275 274 272 275 275 273 277 277 264 259 265 266 263 255 239 229 223 219 216 214 215 215 215
307 290 282 279 273 266 266 265 255 249 256 248 235 254 274 280 301 237 240 256 270 277 282 296 297 296 293 287 291 274 276 275 272 268 258 243 233 225 219 216 215 215 214
355 334 310 296 284 276 272 272 267 262 260 259 245 240 254 278 279 282 244 243 267 287 298 304 304 309 311 307 309 315 313 293 280 273 268 258 247 236 226 218 216 215 214
31 5 341 320 305 295 288 284 279 268 260 261 258 248 246 248 248 257 272 269 259 269 303 318 325 335 338 332 329 348 335 311 294 285 279 272 263 252 237 228 222 218 216
42 18 353 339 327 317 307 299 289 277 269 267 269 264 260 255 249 250 263 270 273 275 298 352 359 357 356 347 360 358 341 326 312 300 291 285 279 270 257 246 232 221 215
339 4 354 344 338 330 321 311 300 298 295 283 280 279 280 284 292 276 272 277 275 270 247 84 35 16 8 358 5 353 350 346 333 320 310 309 311 308 297 290 244 220 211
6 356 349 349 347 343 336 329 326 336 336 330 336 329 330 353 344 322 296 286 276 263 233 154 70 31 15 6 5 352 360 3 354 349 348 347 346 341 324 318 283 206 204
7 357 356 2 5 3 358 359 11 19 28 33 31 34 37 29 19 9 351 308 276 269 253 74 57 31 13 11 6 360 6 11 12 14 14 11 12 18 23 12 13 193 199
24 8 21 26 26 25 25 39 50 48 65 59 53 61 57 41 40 29 17 7 342 289 269 72 43 17 7 8 10 8 14 14 20 24 29 33 46 54 59 61 74 101 129
52 44 47 51 49 46 49 64 68 70 77 74 68 68 64 53 51 39 33 31 25 347 272 95 58 25 15 13 11 14 18 18 16 28 37 46 49 55 60 62 68 79 102
81 70 74 76 69 63 64 75 80 78 80 77 73 70 64 60 56 44 39 40 34 14 339 66 55 27 23 11 8 17 20 20 21 28 36 42 43 45 48 53 60 68 83
106 97 93 91 84 78 78 79 85 84 80 76 73 71 67 65 60 50 43 38 30 24 17 44 49 30 15 9 358 14 21 18 20 20 27 31 32 29 31 32 33 32 30
115 106 100 97 93 90 88 90 91 92 87 78 70 67 61 58 57 52 45 35 25 27 36 47 48 27 10 1 347 354 356 8 5 7 10 9 11 10 12 6 359 351 334
120 113 112 108 104 101 96 99 99 96 95 88 74 64 59 54 52 46 38 29 23 19 21 27 30 8 12 358 357 351 334 332 350 359 334 339 334 329 334 330 317 306 291
130 124 119 114 109 100 104 99 100 98 93 90 83 73 67 58 52 53 49 41 31 22 18 3 352 354 0 358 349 341 334 330 319 12 331 318 320 311 319 317 329 305 288
142 139 130 128 117 109 112 109 101 102 101 89 84 79 68 56 39 40 49 47 50 44 27 345 341 354 350 349 339 326 332 321 311 337 323 303 317 306 316 306 314 303 290
158 153 145 143 133 125 125 123 121 114 109 101 86 63 51 41 34 7 15 16 23 36 22 350 347 348 337 328 309 297 301 295 287 288 308 294 320 316 315 299 327 314 301
165 163 159 159 157 153 149 149 156 156 149 145 136 354 330 333 6 333 341 342 331 16 48 0 353 348 339 327 313 293 297 301 300 309 344 299 321 320 305 295 307 284 299
172 172 176 187 191 192 182 182 193 201 194 186 199 222 283 309 325 313 300 303 306 324 314 294 280 267 278 288 302 291 292 289 295 301 34 310 317 329 309 295 293 282 270